Time,TemperatureF,DewpointF,PressureIn,WindDirection,WindDirectionDegrees,WindSpeedMPH,WindSpeedGustMPH,Humidity,HourlyPrecipIn,Conditions,Clouds,dailyrainin,SoftwareType,DateUTC
2013-01-10 00:00:00,38.5,32.9,30.20,SW,225,2.0,6.0,80,0.00,,CLR,0.00,VWS V14.01,2013-01-10 05:00:00,
2013-01-10 00:05:00,39.1,32.8,30.20,SW,225,1.0,5.0,78,0.00,,CLR,0.00,VWS V14.01,2013-01-10 05:05:00,
2013-01-10 00:10:00,39.2,32.3,30.20,West,270,1.0,4.0,76,0.00,,CLR,0.00,VWS V14.01,2013-01-10 05:10:00,
2013-01-10 00:15:00,39.5,32.2,30.21,West,270,2.0,7.0,75,0.00,,CLR,0.00,VWS V14.01,2013-01-10 05:15:00,
2013-01-10 00:20:00,39.9,32.0,30.21,WSW,248,1.0,5.0,73,0.00,,CLR,0.00,VWS V14.01,2013-01-10 05:20:00,
2013-01-10 00:25:00,39.5,31.2,30.21,West,270,0.0,5.0,72,0.00,,CLR,0.00,VWS V14.01,2013-01-10 05:25:00,
2013-01-10 00:30:00,39.2,31.0,30.22,West,270,0.0,1.0,72,0.00,,CLR,0.00,VWS V14.01,2013-01-10 05:30:00,
2013-01-10 00:35:00,38.9,30.7,30.22,West,270,0.0,1.0,72,0.00,,CLR,0.00,VWS V14.01,2013-01-10 05:35:00,
2013-01-10 00:40:00,38.6,30.7,30.22,West,270,0.0,0.0,73,0.00,,CLR,0.00,VWS V14.01,2013-01-10 05:40:00,
2013-01-10 00:45:00,38.2,30.3,30.23,West,270,0.0,0.0,73,0.00,,CLR,0.00,VWS V14.01,2013-01-10 05:45:00,
2013-01-10 00:50:00,37.8,29.9,30.23,SW,225,0.0,2.0,73,0.00,,CLR,0.00,VWS V14.01,2013-01-10 05:50:00,
2013-01-10 00:55:00,37.6,29.7,30.23,SW,225,0.0,0.0,73,0.00,,CLR,0.00,VWS V14.01,2013-01-10 05:55:00,
2013-01-10 01:00:00,37.3,29.8,30.23,SW,225,0.0,0.0,74,0.00,,CLR,0.00,VWS V14.01,2013-01-10 06:00:00,
2013-01-10 01:05:00,37.2,29.7,30.23,SW,225,0.0,0.0,74,0.00,,CLR,0.00,VWS V14.01,2013-01-10 06:05:00,
2013-01-10 01:10:00,37.0,29.5,30.23,SW,225,0.0,1.0,74,0.00,,CLR,0.00,VWS V14.01,2013-01-10 06:10:00,
2013-01-10 01:15:00,36.8,29.3,30.24,WSW,248,0.0,2.0,74,0.00,,CLR,0.00,VWS V14.01,2013-01-10 06:15:00,
2013-01-10 01:20:00,37.0,29.5,30.24,West,270,0.0,6.0,74,0.00,,CLR,0.00,VWS V14.01,2013-01-10 06:20:00,
2013-01-10 01:25:00,37.2,29.4,30.24,West,270,0.0,2.0,73,0.00,,CLR,0.00,VWS V14.01,2013-01-10 06:25:00,
2013-01-10 01:30:00,37.0,28.8,30.25,WSW,248,1.0,4.0,72,0.00,,CLR,0.00,VWS V14.01,2013-01-10 06:30:00,
2013-01-10 01:35:00,37.6,29.1,30.25,WSW,248,2.0,5.0,71,0.00,,CLR,0.00,VWS V14.01,2013-01-10 06:35:00,
2013-01-10 01:40:00,38.8,29.2,30.25,West,270,2.0,4.0,68,0.00,,CLR,0.00,VWS V14.01,2013-01-10 06:40:00,
2013-01-10 01:45:00,39.6,29.2,30.26,West,270,2.0,8.0,66,0.00,,CLR,0.00,VWS V14.01,2013-01-10 06:45:00,
2013-01-10 01:50:00,40.2,29.0,30.26,West,270,3.0,7.0,64,0.00,,CLR,0.00,VWS V14.01,2013-01-10 06:50:00,
2013-01-10 01:55:00,40.3,28.7,30.26,WNW,292,2.0,8.0,63,0.00,,CLR,0.00,VWS V14.01,2013-01-10 06:55:00,
2013-01-10 02:00:00,40.5,28.5,30.26,West,270,4.0,8.0,62,0.00,,CLR,0.00,VWS V14.01,2013-01-10 07:00:00,
2013-01-10 02:05:00,40.8,28.4,30.26,West,270,3.0,8.0,61,0.00,,CLR,0.00,VWS V14.01,2013-01-10 07:05:00,
2013-01-10 02:10:00,41.2,28.0,30.26,West,270,3.0,9.0,59,0.00,,CLR,0.00,VWS V14.01,2013-01-10 07:10:00,
2013-01-10 02:15:00,41.2,28.0,30.27,West,270,3.0,6.0,59,0.00,,CLR,0.00,VWS V14.01,2013-01-10 07:15:00,
2013-01-10 02:20:00,41.2,28.0,30.27,WSW,248,3.0,8.0,59,0.00,,CLR,0.00,VWS V14.01,2013-01-10 07:20:00,
2013-01-10 02:25:00,41.1,27.9,30.27,WSW,248,1.0,5.0,59,0.00,,CLR,0.00,VWS V14.01,2013-01-10 07:25:00,
2013-01-10 02:30:00,40.6,27.4,30.28,WSW,248,0.0,1.0,59,0.00,,CLR,0.00,VWS V14.01,2013-01-10 07:30:00,
2013-01-10 02:35:00,40.2,27.4,30.28,WSW,248,0.0,2.0,60,0.00,,CLR,0.00,VWS V14.01,2013-01-10 07:35:00,
2013-01-10 02:40:00,39.8,27.1,30.28,WSW,248,0.0,0.0,60,0.00,,CLR,0.00,VWS V14.01,2013-01-10 07:40:00,
2013-01-10 02:45:00,39.3,27.0,30.29,WSW,248,0.0,1.0,61,0.00,,CLR,0.00,VWS V14.01,2013-01-10 07:45:00,
2013-01-10 02:50:00,38.8,26.9,30.29,WSW,248,0.0,1.0,62,0.00,,CLR,0.00,VWS V14.01,2013-01-10 07:50:00,
2013-01-10 02:55:00,38.3,26.4,30.29,West,270,0.0,3.0,62,0.00,,CLR,0.00,VWS V14.01,2013-01-10 07:55:00,
2013-01-10 03:00:00,37.9,26.5,30.29,West,270,1.0,4.0,63,0.00,,CLR,0.00,VWS V14.01,2013-01-10 08:00:00,
2013-01-10 03:05:00,37.6,26.5,30.29,West,270,1.0,6.0,64,0.00,,CLR,0.00,VWS V14.01,2013-01-10 08:05:00,
2013-01-10 03:10:00,37.9,26.8,30.29,West,270,2.0,6.0,64,0.00,,CLR,0.00,VWS V14.01,2013-01-10 08:10:00,
2013-01-10 03:15:00,38.5,26.6,30.30,WSW,248,1.0,4.0,62,0.00,,CLR,0.00,VWS V14.01,2013-01-10 08:15:00,
2013-01-10 03:20:00,38.6,26.7,30.30,WSW,248,1.0,5.0,62,0.00,,CLR,0.00,VWS V14.01,2013-01-10 08:20:00,
2013-01-10 03:25:00,38.3,26.4,30.30,WSW,248,0.0,1.0,62,0.00,,CLR,0.00,VWS V14.01,2013-01-10 08:25:00,
2013-01-10 03:30:00,37.8,26.0,30.31,WSW,248,0.0,2.0,62,0.00,,CLR,0.00,VWS V14.01,2013-01-10 08:30:00,
2013-01-10 03:35:00,37.3,25.9,30.31,WSW,248,0.0,1.0,63,0.00,,CLR,0.00,VWS V14.01,2013-01-10 08:35:00,
2013-01-10 03:40:00,36.9,25.9,30.31,WSW,248,0.0,1.0,64,0.00,,CLR,0.00,VWS V14.01,2013-01-10 08:40:00,
2013-01-10 03:45:00,36.5,25.5,30.31,WSW,248,0.0,1.0,64,0.00,,CLR,0.00,VWS V14.01,2013-01-10 08:45:00,
2013-01-10 03:50:00,36.2,25.6,30.31,WSW,248,0.0,1.0,65,0.00,,CLR,0.00,VWS V14.01,2013-01-10 08:50:00,
2013-01-10 03:55:00,35.9,25.3,30.31,WSW,248,0.0,1.0,65,0.00,,CLR,0.00,VWS V14.01,2013-01-10 08:55:00,
2013-01-10 04:00:00,35.8,25.6,30.31,WSW,248,0.0,2.0,66,0.00,,CLR,0.00,VWS V14.01,2013-01-10 09:00:00,
2013-01-10 04:05:00,35.9,25.7,30.31,WSW,248,0.0,2.0,66,0.00,,CLR,0.00,VWS V14.01,2013-01-10 09:05:00,
2013-01-10 04:10:00,36.2,25.6,30.31,WSW,248,0.0,2.0,65,0.00,,CLR,0.00,VWS V14.01,2013-01-10 09:10:00,
2013-01-10 04:15:00,36.5,25.9,30.31,West,270,0.0,2.0,65,0.00,,CLR,0.00,VWS V14.01,2013-01-10 09:15:00,
2013-01-10 04:20:00,36.6,26.0,30.31,WNW,292,0.0,2.0,65,0.00,,CLR,0.00,VWS V14.01,2013-01-10 09:20:00,
2013-01-10 04:25:00,36.8,25.8,30.31,WNW,292,1.0,6.0,64,0.00,,CLR,0.00,VWS V14.01,2013-01-10 09:25:00,
2013-01-10 04:30:00,37.2,25.8,30.30,WNW,292,1.0,6.0,63,0.00,,CLR,0.00,VWS V14.01,2013-01-10 09:30:00,
2013-01-10 04:35:00,37.5,26.1,30.30,NW,315,1.0,8.0,63,0.00,,CLR,0.00,VWS V14.01,2013-01-10 09:35:00,
2013-01-10 04:40:00,37.8,26.0,30.30,NW,315,1.0,5.0,62,0.00,,CLR,0.00,VWS V14.01,2013-01-10 09:40:00,
2013-01-10 04:45:00,37.8,26.0,30.30,NW,315,0.0,5.0,62,0.00,,CLR,0.00,VWS V14.01,2013-01-10 09:45:00,
2013-01-10 04:50:00,38.3,26.0,30.30,NNW,338,2.0,7.0,61,0.00,,CLR,0.00,VWS V14.01,2013-01-10 09:50:00,
2013-01-10 04:55:00,38.6,25.9,30.30,NW,315,2.0,8.0,60,0.00,,CLR,0.00,VWS V14.01,2013-01-10 09:55:00,
2013-01-10 05:00:00,38.8,25.7,30.31,NW,315,2.0,8.0,59,0.00,,CLR,0.00,VWS V14.01,2013-01-10 10:00:00,
2013-01-10 05:05:00,38.9,25.8,30.31,NW,315,2.0,8.0,59,0.00,,CLR,0.00,VWS V14.01,2013-01-10 10:05:00,
2013-01-10 05:10:00,39.1,26.0,30.31,NW,315,1.0,6.0,59,0.00,,CLR,0.00,VWS V14.01,2013-01-10 10:10:00,
2013-01-10 05:15:00,39.3,25.8,30.31,WNW,292,3.0,9.0,58,0.00,,CLR,0.00,VWS V14.01,2013-01-10 10:15:00,
2013-01-10 05:20:00,39.2,26.1,30.31,NW,315,1.0,5.0,59,0.00,,CLR,0.00,VWS V14.01,2013-01-10 10:20:00,
2013-01-10 05:25:00,39.2,26.1,30.31,NW,315,2.0,7.0,59,0.00,,CLR,0.00,VWS V14.01,2013-01-10 10:25:00,
2013-01-10 05:30:00,39.2,26.1,30.32,WNW,292,2.0,7.0,59,0.00,,CLR,0.00,VWS V14.01,2013-01-10 10:30:00,
2013-01-10 05:35:00,39.2,26.1,30.32,NW,315,1.0,5.0,59,0.00,,CLR,0.00,VWS V14.01,2013-01-10 10:35:00,
2013-01-10 05:40:00,39.1,26.0,30.32,NNW,338,1.0,7.0,59,0.00,,CLR,0.00,VWS V14.01,2013-01-10 10:40:00,
2013-01-10 05:45:00,38.8,25.7,30.33,NW,315,0.0,5.0,59,0.00,,CLR,0.00,VWS V14.01,2013-01-10 10:45:00,
2013-01-10 05:50:00,38.6,25.9,30.33,NW,315,0.0,2.0,60,0.00,,CLR,0.00,VWS V14.01,2013-01-10 10:50:00,
2013-01-10 05:55:00,38.5,25.8,30.33,NW,315,1.0,6.0,60,0.00,,CLR,0.00,VWS V14.01,2013-01-10 10:55:00,
2013-01-10 06:00:00,38.3,25.6,30.33,WNW,292,0.0,4.0,60,0.00,,CLR,0.00,VWS V14.01,2013-01-10 11:00:00,
2013-01-10 06:05:00,38.5,25.8,30.33,NW,315,1.0,5.0,60,0.00,,CLR,0.00,VWS V14.01,2013-01-10 11:05:00,
2013-01-10 06:10:00,38.5,25.8,30.33,NW,315,1.0,6.0,60,0.00,,CLR,0.00,VWS V14.01,2013-01-10 11:10:00,
2013-01-10 06:15:00,38.3,25.6,30.34,NW,315,0.0,6.0,60,0.00,,CLR,0.00,VWS V14.01,2013-01-10 11:15:00,
2013-01-10 06:20:00,38.0,25.8,30.34,NW,315,0.0,5.0,61,0.00,,CLR,0.00,VWS V14.01,2013-01-10 11:20:00,
2013-01-10 06:25:00,37.8,25.6,30.34,NW,315,1.0,6.0,61,0.00,,CLR,0.00,VWS V14.01,2013-01-10 11:25:00,
2013-01-10 06:30:00,38.0,25.8,30.35,WNW,292,2.0,6.0,61,0.00,,CLR,0.00,VWS V14.01,2013-01-10 11:30:00,
2013-01-10 06:35:00,38.3,25.6,30.35,WNW,292,2.0,8.0,60,0.00,,CLR,0.00,VWS V14.01,2013-01-10 11:35:00,
2013-01-10 06:40:00,38.5,25.8,30.35,NW,315,1.0,6.0,60,0.00,,CLR,0.00,VWS V14.01,2013-01-10 11:40:00,
2013-01-10 06:45:00,38.3,25.6,30.36,North,0,1.0,5.0,60,0.00,,CLR,0.00,VWS V14.01,2013-01-10 11:45:00,
2013-01-10 06:50:00,38.2,25.5,30.36,NNW,338,1.0,6.0,60,0.00,,CLR,0.00,VWS V14.01,2013-01-10 11:50:00,
2013-01-10 06:55:00,38.3,25.6,30.36,WNW,292,1.0,4.0,60,0.00,,CLR,0.00,VWS V14.01,2013-01-10 11:55:00,
2013-01-10 07:00:00,38.0,25.4,30.37,WSW,248,1.0,6.0,60,0.00,,CLR,0.00,VWS V14.01,2013-01-10 12:00:00,
2013-01-10 07:05:00,37.6,25.4,30.37,West,270,0.0,2.0,61,0.00,,CLR,0.00,VWS V14.01,2013-01-10 12:05:00,
2013-01-10 07:10:00,37.2,25.4,30.37,West,270,0.0,5.0,62,0.00,,CLR,0.00,VWS V14.01,2013-01-10 12:10:00,
2013-01-10 07:15:00,36.9,25.1,30.39,WSW,248,0.0,3.0,62,0.00,,CLR,0.00,VWS V14.01,2013-01-10 12:15:00,
2013-01-10 07:20:00,36.8,25.4,30.39,WSW,248,0.0,4.0,63,0.00,,CLR,0.00,VWS V14.01,2013-01-10 12:20:00,
2013-01-10 07:25:00,36.6,25.2,30.39,WSW,248,1.0,6.0,63,0.00,,CLR,0.00,VWS V14.01,2013-01-10 12:25:00,
2013-01-10 07:30:00,36.9,25.5,30.39,NW,315,1.0,4.0,63,0.00,,CLR,0.00,VWS V14.01,2013-01-10 12:30:00,
2013-01-10 07:35:00,36.9,25.5,30.39,NW,315,1.0,5.0,63,0.00,,CLR,0.00,VWS V14.01,2013-01-10 12:35:00,
2013-01-10 07:40:00,37.0,25.6,30.39,WNW,292,0.0,5.0,63,0.00,,CLR,0.00,VWS V14.01,2013-01-10 12:40:00,
2013-01-10 07:45:00,37.3,25.5,30.39,WNW,292,0.0,4.0,62,0.00,,CLR,0.00,VWS V14.01,2013-01-10 12:45:00,
2013-01-10 07:50:00,37.5,25.7,30.39,WNW,292,1.0,5.0,62,0.00,,CLR,0.00,VWS V14.01,2013-01-10 12:50:00,
2013-01-10 07:55:00,37.8,26.0,30.39,West,270,1.0,5.0,62,0.00,,CLR,0.00,VWS V14.01,2013-01-10 12:55:00,
2013-01-10 08:00:00,37.8,26.0,30.41,West,270,1.0,5.0,62,0.00,,CLR,0.00,VWS V14.01,2013-01-10 13:00:00,
2013-01-10 08:05:00,37.9,25.7,30.41,WSW,248,1.0,5.0,61,0.00,,CLR,0.00,VWS V14.01,2013-01-10 13:05:00,
2013-01-10 08:10:00,38.2,25.5,30.41,WSW,248,1.0,5.0,60,0.00,,CLR,0.00,VWS V14.01,2013-01-10 13:10:00,
2013-01-10 08:15:00,38.2,26.0,30.41,WNW,292,0.0,2.0,61,0.00,,CLR,0.00,VWS V14.01,2013-01-10 13:15:00,
2013-01-10 08:20:00,37.9,26.1,30.41,WNW,292,0.0,2.0,62,0.00,,CLR,0.00,VWS V14.01,2013-01-10 13:20:00,
2013-01-10 08:25:00,37.8,26.0,30.41,WNW,292,0.0,2.0,62,0.00,,CLR,0.00,VWS V14.01,2013-01-10 13:25:00,
2013-01-10 08:30:00,37.9,26.1,30.42,WNW,292,0.0,1.0,62,0.00,,CLR,0.00,VWS V14.01,2013-01-10 13:30:00,
2013-01-10 08:35:00,38.0,26.1,30.42,WNW,292,0.0,1.0,62,0.00,,CLR,0.00,VWS V14.01,2013-01-10 13:35:00,
2013-01-10 08:40:00,38.3,26.4,30.42,SW,225,1.0,5.0,62,0.00,,CLR,0.00,VWS V14.01,2013-01-10 13:40:00,
2013-01-10 08:45:00,38.6,26.7,30.42,North,0,1.0,7.0,62,0.00,,CLR,0.00,VWS V14.01,2013-01-10 13:45:00,
2013-01-10 08:50:00,39.2,26.9,30.42,NW,315,1.0,6.0,61,0.00,,CLR,0.00,VWS V14.01,2013-01-10 13:50:00,
2013-01-10 08:55:00,39.5,26.8,30.42,North,0,2.0,6.0,60,0.00,,CLR,0.00,VWS V14.01,2013-01-10 13:55:00,
2013-01-10 09:00:00,39.8,26.7,30.43,North,0,2.0,9.0,59,0.00,,CLR,0.00,VWS V14.01,2013-01-10 14:00:00,
2013-01-10 09:05:00,39.9,26.8,30.43,NNW,338,1.0,5.0,59,0.00,,CLR,0.00,VWS V14.01,2013-01-10 14:05:00,
2013-01-10 09:10:00,40.2,27.0,30.43,North,0,2.0,6.0,59,0.00,,CLR,0.00,VWS V14.01,2013-01-10 14:10:00,
2013-01-10 09:15:00,40.3,26.7,30.43,NW,315,3.0,9.0,58,0.00,,CLR,0.00,VWS V14.01,2013-01-10 14:15:00,
2013-01-10 09:20:00,40.6,27.0,30.43,North,0,2.0,5.0,58,0.00,,CLR,0.00,VWS V14.01,2013-01-10 14:20:00,
2013-01-10 09:25:00,40.6,27.4,30.43,NW,315,3.0,8.0,59,0.00,,CLR,0.00,VWS V14.01,2013-01-10 14:25:00,
2013-01-10 09:30:00,40.9,27.7,30.44,NNW,338,1.0,5.0,59,0.00,,CLR,0.00,VWS V14.01,2013-01-10 14:30:00,
2013-01-10 09:35:00,41.1,27.0,30.44,NW,315,3.0,10.0,57,0.00,,CLR,0.00,VWS V14.01,2013-01-10 14:35:00,
2013-01-10 09:40:00,41.2,27.1,30.44,NNW,338,3.0,7.0,57,0.00,,CLR,0.00,VWS V14.01,2013-01-10 14:40:00,
2013-01-10 09:45:00,41.5,28.3,30.44,NNE,22,1.0,6.0,59,0.00,,CLR,0.00,VWS V14.01,2013-01-10 14:45:00,
2013-01-10 09:50:00,41.6,26.6,30.44,NNW,338,1.0,6.0,55,0.00,,CLR,0.00,VWS V14.01,2013-01-10 14:50:00,
2013-01-10 09:55:00,41.9,27.4,30.44,North,0,3.0,8.0,56,0.00,,CLR,0.00,VWS V14.01,2013-01-10 14:55:00,
2013-01-10 10:00:00,42.1,28.0,30.44,North,0,3.0,11.0,57,0.00,,CLR,0.00,VWS V14.01,2013-01-10 15:00:00,
2013-01-10 10:05:00,42.3,27.3,30.44,NNW,338,4.0,7.0,55,0.00,,CLR,0.00,VWS V14.01,2013-01-10 15:05:00,
2013-01-10 10:10:00,42.6,28.5,30.44,NNW,338,4.0,9.0,57,0.00,,CLR,0.00,VWS V14.01,2013-01-10 15:10:00,
2013-01-10 10:15:00,42.8,26.9,30.45,North,0,6.0,11.0,53,0.00,,CLR,0.00,VWS V14.01,2013-01-10 15:15:00,
2013-01-10 10:20:00,42.9,27.4,30.45,North,0,4.0,8.0,54,0.00,,CLR,0.00,VWS V14.01,2013-01-10 15:20:00,
2013-01-10 10:25:00,42.9,27.4,30.45,North,0,5.0,9.0,54,0.00,,CLR,0.00,VWS V14.01,2013-01-10 15:25:00,
2013-01-10 10:30:00,43.2,28.1,30.45,North,0,4.0,9.0,55,0.00,,CLR,0.00,VWS V14.01,2013-01-10 15:30:00,
2013-01-10 10:35:00,43.6,28.5,30.45,North,0,3.0,10.0,55,0.00,,CLR,0.00,VWS V14.01,2013-01-10 15:35:00,
2013-01-10 10:40:00,43.8,27.8,30.45,North,0,4.0,9.0,53,0.00,,CLR,0.00,VWS V14.01,2013-01-10 15:40:00,
2013-01-10 10:45:00,43.9,28.4,30.45,North,0,3.0,7.0,54,0.00,,CLR,0.00,VWS V14.01,2013-01-10 15:45:00,
2013-01-10 10:50:00,43.8,27.3,30.45,North,0,6.0,12.0,52,0.00,,CLR,0.00,VWS V14.01,2013-01-10 15:50:00,
2013-01-10 10:55:00,44.1,28.5,30.45,North,0,5.0,9.0,54,0.00,,CLR,0.00,VWS V14.01,2013-01-10 15:55:00,
2013-01-10 11:00:00,44.2,28.2,30.44,North,0,4.0,10.0,53,0.00,,CLR,0.00,VWS V14.01,2013-01-10 16:00:00,
2013-01-10 11:05:00,44.3,27.8,30.44,NNW,338,3.0,8.0,52,0.00,,CLR,0.00,VWS V14.01,2013-01-10 16:05:00,
2013-01-10 11:10:00,44.6,28.1,30.44,North,0,3.0,7.0,52,0.00,,CLR,0.00,VWS V14.01,2013-01-10 16:10:00,
2013-01-10 11:15:00,45.1,29.0,30.44,North,0,2.0,6.0,53,0.00,,CLR,0.00,VWS V14.01,2013-01-10 16:15:00,
2013-01-10 11:20:00,45.2,28.2,30.44,NW,315,3.0,8.0,51,0.00,,CLR,0.00,VWS V14.01,2013-01-10 16:20:00,
2013-01-10 11:25:00,45.4,28.4,30.44,North,0,2.0,6.0,51,0.00,,CLR,0.00,VWS V14.01,2013-01-10 16:25:00,
2013-01-10 11:30:00,45.2,27.7,30.43,North,0,4.0,9.0,50,0.00,,CLR,0.00,VWS V14.01,2013-01-10 16:30:00,
2013-01-10 11:35:00,45.5,28.0,30.43,North,0,3.0,7.0,50,0.00,,CLR,0.00,VWS V14.01,2013-01-10 16:35:00,
2013-01-10 11:40:00,45.8,29.7,30.43,North,0,2.0,9.0,53,0.00,,CLR,0.00,VWS V14.01,2013-01-10 16:40:00,
2013-01-10 11:45:00,46.1,27.5,30.43,North,0,3.0,8.0,48,0.00,,CLR,0.00,VWS V14.01,2013-01-10 16:45:00,
2013-01-10 11:50:00,46.1,28.5,30.43,NW,315,3.0,8.0,50,0.00,,CLR,0.00,VWS V14.01,2013-01-10 16:50:00,
2013-01-10 11:55:00,46.0,27.9,30.43,NW,315,4.0,9.0,49,0.00,,CLR,0.00,VWS V14.01,2013-01-10 16:55:00,
2013-01-10 12:00:00,46.1,27.5,30.42,NW,315,4.0,8.0,48,0.00,,CLR,0.00,VWS V14.01,2013-01-10 17:00:00,
2013-01-10 12:05:00,46.4,28.3,30.42,North,0,3.0,7.0,49,0.00,,CLR,0.00,VWS V14.01,2013-01-10 17:05:00,
2013-01-10 12:10:00,46.5,28.4,30.42,NW,315,4.0,8.0,49,0.00,,CLR,0.00,VWS V14.01,2013-01-10 17:10:00,
2013-01-10 12:15:00,46.5,28.4,30.41,WNW,292,4.0,7.0,49,0.00,,CLR,0.00,VWS V14.01,2013-01-10 17:15:00,
2013-01-10 12:20:00,46.5,27.9,30.41,NW,315,4.0,11.0,48,0.00,,CLR,0.00,VWS V14.01,2013-01-10 17:20:00,
2013-01-10 12:25:00,46.5,27.9,30.41,NW,315,3.0,9.0,48,0.00,,CLR,0.00,VWS V14.01,2013-01-10 17:25:00,
2013-01-10 12:30:00,46.5,28.4,30.41,NW,315,4.0,10.0,49,0.00,,CLR,0.00,VWS V14.01,2013-01-10 17:30:00,
2013-01-10 12:35:00,46.8,28.2,30.41,WNW,292,2.0,6.0,48,0.00,,CLR,0.00,VWS V14.01,2013-01-10 17:35:00,
2013-01-10 12:40:00,47.1,28.4,30.41,NW,315,4.0,8.0,48,0.00,,CLR,0.00,VWS V14.01,2013-01-10 17:40:00,
2013-01-10 12:45:00,47.1,27.9,30.41,North,0,5.0,10.0,47,0.00,,CLR,0.00,VWS V14.01,2013-01-10 17:45:00,
2013-01-10 12:50:00,47.0,28.3,30.41,North,0,3.0,8.0,48,0.00,,CLR,0.00,VWS V14.01,2013-01-10 17:50:00,
2013-01-10 12:55:00,46.8,28.2,30.41,North,0,3.0,8.0,48,0.00,,CLR,0.00,VWS V14.01,2013-01-10 17:55:00,
2013-01-10 13:00:00,47.3,27.6,30.40,North,0,5.0,9.0,46,0.00,,CLR,0.00,VWS V14.01,2013-01-10 18:00:00,
2013-01-10 13:05:00,47.0,28.3,30.40,North,0,5.0,10.0,48,0.00,,CLR,0.00,VWS V14.01,2013-01-10 18:05:00,
2013-01-10 13:10:00,47.1,27.4,30.40,North,0,2.0,6.0,46,0.00,,CLR,0.00,VWS V14.01,2013-01-10 18:10:00,
2013-01-10 13:15:00,47.0,27.3,30.40,NW,315,3.0,8.0,46,0.00,,CLR,0.00,VWS V14.01,2013-01-10 18:15:00,
2013-01-10 13:20:00,47.1,27.4,30.40,North,0,3.0,9.0,46,0.00,,CLR,0.00,VWS V14.01,2013-01-10 18:20:00,
2013-01-10 13:25:00,47.1,27.4,30.40,North,0,2.0,6.0,46,0.00,,CLR,0.00,VWS V14.01,2013-01-10 18:25:00,
2013-01-10 13:30:00,47.6,29.4,30.40,NW,315,3.0,8.0,49,0.00,,CLR,0.00,VWS V14.01,2013-01-10 18:30:00,
2013-01-10 13:35:00,47.7,28.0,30.40,West,270,5.0,11.0,46,0.00,,CLR,0.00,VWS V14.01,2013-01-10 18:35:00,
2013-01-10 13:40:00,47.9,28.7,30.40,WNW,292,3.0,8.0,47,0.00,,CLR,0.00,VWS V14.01,2013-01-10 18:40:00,
2013-01-10 13:45:00,48.0,28.2,30.40,West,270,5.0,9.0,46,0.00,,CLR,0.00,VWS V14.01,2013-01-10 18:45:00,
2013-01-10 13:50:00,47.6,27.9,30.40,West,270,6.0,8.0,46,0.00,,CLR,0.00,VWS V14.01,2013-01-10 18:50:00,
2013-01-10 13:55:00,47.7,29.0,30.40,WNW,292,4.0,9.0,48,0.00,,CLR,0.00,VWS V14.01,2013-01-10 18:55:00,
2013-01-10 14:00:00,48.0,27.1,30.41,WNW,292,5.0,8.0,44,0.00,,CLR,0.00,VWS V14.01,2013-01-10 19:00:00,
2013-01-10 14:05:00,48.3,28.5,30.41,WNW,292,4.0,8.0,46,0.00,,CLR,0.00,VWS V14.01,2013-01-10 19:05:00,
2013-01-10 14:10:00,48.3,27.4,30.41,West,270,4.0,9.0,44,0.00,,CLR,0.00,VWS V14.01,2013-01-10 19:10:00,
2013-01-10 14:15:00,48.3,27.4,30.41,West,270,4.0,9.0,44,0.00,,CLR,0.00,VWS V14.01,2013-01-10 19:15:00,
2013-01-10 14:20:00,48.6,28.2,30.41,WNW,292,3.0,12.0,45,0.00,,CLR,0.00,VWS V14.01,2013-01-10 19:20:00,
2013-01-10 14:25:00,48.5,27.6,30.41,NW,315,5.0,9.0,44,0.00,,CLR,0.00,VWS V14.01,2013-01-10 19:25:00,
2013-01-10 14:30:00,48.5,28.7,30.41,West,270,3.0,8.0,46,0.00,,CLR,0.00,VWS V14.01,2013-01-10 19:30:00,
2013-01-10 14:35:00,48.6,28.2,30.41,NNW,338,2.0,7.0,45,0.00,,CLR,0.00,VWS V14.01,2013-01-10 19:35:00,
2013-01-10 14:40:00,48.9,28.0,30.41,NNW,338,2.0,6.0,44,0.00,,CLR,0.00,VWS V14.01,2013-01-10 19:40:00,
2013-01-10 14:45:00,48.9,27.4,30.42,WNW,292,2.0,6.0,43,0.00,,CLR,0.00,VWS V14.01,2013-01-10 19:45:00,
2013-01-10 14:50:00,48.9,28.0,30.42,North,0,3.0,10.0,44,0.00,,CLR,0.00,VWS V14.01,2013-01-10 19:50:00,
2013-01-10 14:55:00,48.8,27.3,30.42,WNW,292,4.0,8.0,43,0.00,,CLR,0.00,VWS V14.01,2013-01-10 19:55:00,
2013-01-10 15:00:00,48.6,28.2,30.42,West,270,3.0,7.0,45,0.00,,CLR,0.00,VWS V14.01,2013-01-10 20:00:00,
2013-01-10 15:05:00,48.6,28.2,30.42,NW,315,4.0,9.0,45,0.00,,CLR,0.00,VWS V14.01,2013-01-10 20:05:00,
2013-01-10 15:10:00,48.5,27.6,30.42,West,270,5.0,9.0,44,0.00,,CLR,0.00,VWS V14.01,2013-01-10 20:10:00,
2013-01-10 15:15:00,48.3,28.0,30.42,West,270,5.0,10.0,45,0.00,,CLR,0.00,VWS V14.01,2013-01-10 20:15:00,
2013-01-10 15:20:00,48.5,28.1,30.42,NW,315,3.0,7.0,45,0.00,,CLR,0.00,VWS V14.01,2013-01-10 20:20:00,
2013-01-10 15:25:00,48.6,27.7,30.42,WNW,292,3.0,8.0,44,0.00,,CLR,0.00,VWS V14.01,2013-01-10 20:25:00,
2013-01-10 15:30:00,48.5,27.6,30.42,West,270,2.0,7.0,44,0.00,,CLR,0.00,VWS V14.01,2013-01-10 20:30:00,
2013-01-10 15:35:00,48.5,28.1,30.42,West,270,2.0,8.0,45,0.00,,CLR,0.00,VWS V14.01,2013-01-10 20:35:00,
2013-01-10 15:40:00,48.0,28.2,30.42,West,270,4.0,10.0,46,0.00,,CLR,0.00,VWS V14.01,2013-01-10 20:40:00,
2013-01-10 15:45:00,47.7,28.0,30.42,NNW,338,1.0,5.0,46,0.00,,CLR,0.00,VWS V14.01,2013-01-10 20:45:00,
2013-01-10 15:50:00,48.0,27.7,30.42,North,0,1.0,6.0,45,0.00,,CLR,0.00,VWS V14.01,2013-01-10 20:50:00,
2013-01-10 15:55:00,48.2,27.3,30.42,NW,315,3.0,8.0,44,0.00,,CLR,0.00,VWS V14.01,2013-01-10 20:55:00,
2013-01-10 16:00:00,47.9,27.6,30.42,NW,315,2.0,7.0,45,0.00,,CLR,0.00,VWS V14.01,2013-01-10 21:00:00,
2013-01-10 16:05:00,47.6,26.8,30.42,NNW,338,2.0,5.0,44,0.00,,CLR,0.00,VWS V14.01,2013-01-10 21:05:00,
2013-01-10 16:10:00,47.3,27.0,30.42,NW,315,1.0,4.0,45,0.00,,CLR,0.00,VWS V14.01,2013-01-10 21:10:00,
2013-01-10 16:15:00,46.8,26.6,30.42,North,0,1.0,8.0,45,0.00,,CLR,0.00,VWS V14.01,2013-01-10 21:15:00,
2013-01-10 16:20:00,46.4,26.8,30.42,NW,315,0.0,5.0,46,0.00,,CLR,0.00,VWS V14.01,2013-01-10 21:20:00,
2013-01-10 16:25:00,46.0,26.9,30.42,NW,315,0.0,0.0,47,0.00,,CLR,0.00,VWS V14.01,2013-01-10 21:25:00,
2013-01-10 16:30:00,45.4,26.9,30.43,West,270,0.0,3.0,48,0.00,,CLR,0.00,VWS V14.01,2013-01-10 21:30:00,
2013-01-10 16:35:00,44.8,26.8,30.43,NW,315,0.0,5.0,49,0.00,,CLR,0.00,VWS V14.01,2013-01-10 21:35:00,
2013-01-10 16:40:00,44.3,26.9,30.43,NW,315,1.0,4.0,50,0.00,,CLR,0.00,VWS V14.01,2013-01-10 21:40:00,
2013-01-10 16:45:00,44.1,26.7,30.42,NW,315,0.0,1.0,50,0.00,,CLR,0.00,VWS V14.01,2013-01-10 21:45:00,
2013-01-10 16:50:00,43.8,26.9,30.42,NW,315,0.0,0.0,51,0.00,,CLR,0.00,VWS V14.01,2013-01-10 21:50:00,
2013-01-10 16:55:00,43.5,26.6,30.42,NW,315,0.0,0.0,51,0.00,,CLR,0.00,VWS V14.01,2013-01-10 21:55:00,
2013-01-10 17:00:00,43.2,26.3,30.42,NW,315,0.0,0.0,51,0.00,,CLR,0.00,VWS V14.01,2013-01-10 22:00:00,
2013-01-10 17:05:00,43.1,26.2,30.42,NW,315,0.0,1.0,51,0.00,,CLR,0.00,VWS V14.01,2013-01-10 22:05:00,
2013-01-10 17:10:00,42.9,26.0,30.42,NW,315,0.0,0.0,51,0.00,,CLR,0.00,VWS V14.01,2013-01-10 22:10:00,
2013-01-10 17:15:00,42.5,26.6,30.43,NW,315,0.0,0.0,53,0.00,,CLR,0.00,VWS V14.01,2013-01-10 22:15:00,
2013-01-10 17:20:00,41.9,26.0,30.43,NW,315,0.0,0.0,53,0.00,,CLR,0.00,VWS V14.01,2013-01-10 22:20:00,
2013-01-10 17:25:00,41.6,26.2,30.43,NW,315,0.0,0.0,54,0.00,,CLR,0.00,VWS V14.01,2013-01-10 22:25:00,
2013-01-10 17:30:00,41.5,26.1,30.43,NW,315,0.0,0.0,54,0.00,,CLR,0.00,VWS V14.01,2013-01-10 22:30:00,
2013-01-10 17:35:00,41.2,25.8,30.43,NW,315,0.0,0.0,54,0.00,,CLR,0.00,VWS V14.01,2013-01-10 22:35:00,
2013-01-10 17:40:00,41.1,26.2,30.43,NW,315,0.0,0.0,55,0.00,,CLR,0.00,VWS V14.01,2013-01-10 22:40:00,
2013-01-10 17:45:00,41.2,25.8,30.44,NW,315,0.0,1.0,54,0.00,,CLR,0.00,VWS V14.01,2013-01-10 22:45:00,
2013-01-10 17:50:00,41.2,25.8,30.44,NW,315,0.0,0.0,54,0.00,,CLR,0.00,VWS V14.01,2013-01-10 22:50:00,
2013-01-10 17:55:00,41.1,26.2,30.44,NW,315,0.0,2.0,55,0.00,,CLR,0.00,VWS V14.01,2013-01-10 22:55:00,
2013-01-10 18:00:00,40.5,26.5,30.44,NW,315,0.0,1.0,57,0.00,,CLR,0.00,VWS V14.01,2013-01-10 23:00:00,
2013-01-10 18:05:00,40.2,26.2,30.44,NW,315,0.0,2.0,57,0.00,,CLR,0.00,VWS V14.01,2013-01-10 23:05:00,
2013-01-10 18:10:00,40.2,26.2,30.44,NW,315,0.0,0.0,57,0.00,,CLR,0.00,VWS V14.01,2013-01-10 23:10:00,
2013-01-10 18:15:00,39.9,26.8,30.44,NW,315,0.0,0.0,59,0.00,,CLR,0.00,VWS V14.01,2013-01-10 23:15:00,
2013-01-10 18:20:00,39.8,26.2,30.44,NW,315,0.0,1.0,58,0.00,,CLR,0.00,VWS V14.01,2013-01-10 23:20:00,
2013-01-10 18:25:00,39.6,26.5,30.44,NW,315,0.0,0.0,59,0.00,,CLR,0.00,VWS V14.01,2013-01-10 23:25:00,
2013-01-10 18:30:00,39.9,26.3,30.44,NW,315,0.0,2.0,58,0.00,,CLR,0.00,VWS V14.01,2013-01-10 23:30:00,
2013-01-10 18:35:00,40.1,26.5,30.44,NNW,338,0.0,2.0,58,0.00,,CLR,0.00,VWS V14.01,2013-01-10 23:35:00,
2013-01-10 18:40:00,39.9,26.3,30.44,NNW,338,0.0,0.0,58,0.00,,CLR,0.00,VWS V14.01,2013-01-10 23:40:00,
2013-01-10 18:45:00,39.9,25.9,30.44,NNW,338,0.0,0.0,57,0.00,,CLR,0.00,VWS V14.01,2013-01-10 23:45:00,
2013-01-10 18:50:00,40.1,26.1,30.44,NNW,338,0.0,1.0,57,0.00,,CLR,0.00,VWS V14.01,2013-01-10 23:50:00,
2013-01-10 18:55:00,40.1,26.5,30.44,NNW,338,0.0,0.0,58,0.00,,CLR,0.00,VWS V14.01,2013-01-10 23:55:00,
2013-01-10 19:00:00,40.2,26.2,30.43,North,0,1.0,5.0,57,0.00,,CLR,0.00,VWS V14.01,2013-01-11 00:00:00,
2013-01-10 19:05:00,40.3,26.7,30.43,North,0,3.0,5.0,58,0.00,,CLR,0.00,VWS V14.01,2013-01-11 00:05:00,
2013-01-10 19:10:00,40.3,26.3,30.43,North,0,0.0,0.0,57,0.00,,CLR,0.00,VWS V14.01,2013-01-11 00:10:00,
2013-01-10 19:15:00,40.1,26.9,30.43,North,0,0.0,0.0,59,0.00,,CLR,0.00,VWS V14.01,2013-01-11 00:15:00,
2013-01-10 19:20:00,39.9,26.3,30.43,North,0,0.0,2.0,58,0.00,,CLR,0.00,VWS V14.01,2013-01-11 00:20:00,
2013-01-10 19:25:00,39.6,26.5,30.43,North,0,0.0,0.0,59,0.00,,CLR,0.00,VWS V14.01,2013-01-11 00:25:00,
2013-01-10 19:30:00,39.3,26.6,30.44,North,0,0.0,0.0,60,0.00,,CLR,0.00,VWS V14.01,2013-01-11 00:30:00,
2013-01-10 19:35:00,39.1,26.8,30.44,North,0,0.0,0.0,61,0.00,,CLR,0.00,VWS V14.01,2013-01-11 00:35:00,
2013-01-10 19:40:00,39.3,26.2,30.44,North,0,0.0,0.0,59,0.00,,CLR,0.00,VWS V14.01,2013-01-11 00:40:00,
2013-01-10 19:45:00,39.2,26.9,30.44,North,0,0.0,0.0,61,0.00,,CLR,0.00,VWS V14.01,2013-01-11 00:45:00,
2013-01-10 19:50:00,38.6,26.7,30.44,North,0,0.0,1.0,62,0.00,,CLR,0.00,VWS V14.01,2013-01-11 00:50:00,
2013-01-10 19:55:00,38.0,26.9,30.44,North,0,0.0,0.0,64,0.00,,CLR,0.00,VWS V14.01,2013-01-11 00:55:00,
2013-01-10 20:00:00,37.5,26.8,30.44,North,0,0.0,0.0,65,0.00,,CLR,0.00,VWS V14.01,2013-01-11 01:00:00,
2013-01-10 20:05:00,37.2,26.5,30.44,North,0,0.0,0.0,65,0.00,,CLR,0.00,VWS V14.01,2013-01-11 01:05:00,
2013-01-10 20:10:00,37.2,26.2,30.44,North,0,1.0,4.0,64,0.00,,CLR,0.00,VWS V14.01,2013-01-11 01:10:00,
2013-01-10 20:15:00,37.3,26.6,30.44,North,0,0.0,2.0,65,0.00,,CLR,0.00,VWS V14.01,2013-01-11 01:15:00,
2013-01-10 20:20:00,37.2,26.9,30.44,North,0,0.0,0.0,66,0.00,,CLR,0.00,VWS V14.01,2013-01-11 01:20:00,
2013-01-10 20:25:00,36.9,26.6,30.44,North,0,0.0,0.0,66,0.00,,CLR,0.00,VWS V14.01,2013-01-11 01:25:00,
2013-01-10 20:30:00,36.8,26.5,30.44,North,0,0.0,1.0,66,0.00,,CLR,0.00,VWS V14.01,2013-01-11 01:30:00,
2013-01-10 20:35:00,36.8,26.1,30.44,North,0,0.0,0.0,65,0.00,,CLR,0.00,VWS V14.01,2013-01-11 01:35:00,
2013-01-10 20:40:00,36.9,25.9,30.44,North,0,0.0,0.0,64,0.00,,CLR,0.00,VWS V14.01,2013-01-11 01:40:00,
2013-01-10 20:45:00,37.0,26.0,30.43,North,0,0.0,0.0,64,0.00,,CLR,0.00,VWS V14.01,2013-01-11 01:45:00,
2013-01-10 20:50:00,37.3,25.9,30.43,North,0,0.0,2.0,63,0.00,,CLR,0.00,VWS V14.01,2013-01-11 01:50:00,
2013-01-10 20:55:00,37.5,26.1,30.43,North,0,0.0,0.0,63,0.00,,CLR,0.00,VWS V14.01,2013-01-11 01:55:00,
2013-01-10 21:00:00,37.6,25.8,30.42,North,0,0.0,1.0,62,0.00,,CLR,0.00,VWS V14.01,2013-01-11 02:00:00,
2013-01-10 21:05:00,37.8,26.0,30.42,North,0,0.0,0.0,62,0.00,,CLR,0.00,VWS V14.01,2013-01-11 02:05:00,
2013-01-10 21:10:00,38.0,26.1,30.42,NE,45,0.0,1.0,62,0.00,,CLR,0.00,VWS V14.01,2013-01-11 02:10:00,
2013-01-10 21:15:00,38.0,26.1,30.43,NE,45,0.0,0.0,62,0.00,,CLR,0.00,VWS V14.01,2013-01-11 02:15:00,
2013-01-10 21:20:00,38.0,26.1,30.43,NE,45,0.0,0.0,62,0.00,,CLR,0.00,VWS V14.01,2013-01-11 02:20:00,
2013-01-10 21:25:00,37.8,26.4,30.43,NE,45,0.0,0.0,63,0.00,,CLR,0.00,VWS V14.01,2013-01-11 02:25:00,
2013-01-10 21:30:00,37.5,26.5,30.44,East,90,0.0,1.0,64,0.00,,CLR,0.00,VWS V14.01,2013-01-11 02:30:00,
2013-01-10 21:35:00,37.0,26.3,30.44,East,90,0.0,0.0,65,0.00,,CLR,0.00,VWS V14.01,2013-01-11 02:35:00,
2013-01-10 21:40:00,36.5,26.2,30.44,East,90,0.0,0.0,66,0.00,,CLR,0.00,VWS V14.01,2013-01-11 02:40:00,
2013-01-10 21:45:00,36.0,26.1,30.44,East,90,0.0,0.0,67,0.00,,CLR,0.00,VWS V14.01,2013-01-11 02:45:00,
2013-01-10 21:50:00,35.8,25.9,30.44,East,90,0.0,0.0,67,0.00,,CLR,0.00,VWS V14.01,2013-01-11 02:50:00,
2013-01-10 21:55:00,35.8,25.9,30.44,East,90,0.0,1.0,67,0.00,,CLR,0.00,VWS V14.01,2013-01-11 02:55:00,
2013-01-10 22:00:00,35.6,25.7,30.44,East,90,0.0,0.0,67,0.00,,CLR,0.00,VWS V14.01,2013-01-11 03:00:00,
2013-01-10 22:05:00,35.6,25.7,30.44,East,90,0.0,0.0,67,0.00,,CLR,0.00,VWS V14.01,2013-01-11 03:05:00,
2013-01-10 22:10:00,35.6,26.1,30.44,East,90,0.0,0.0,68,0.00,,CLR,0.00,VWS V14.01,2013-01-11 03:10:00,
2013-01-10 22:15:00,35.3,25.8,30.44,East,90,0.0,0.0,68,0.00,,CLR,0.00,VWS V14.01,2013-01-11 03:15:00,
2013-01-10 22:20:00,35.6,25.7,30.44,East,90,0.0,1.0,67,0.00,,CLR,0.00,VWS V14.01,2013-01-11 03:20:00,
2013-01-10 22:25:00,35.8,26.3,30.44,East,90,0.0,0.0,68,0.00,,CLR,0.00,VWS V14.01,2013-01-11 03:25:00,
2013-01-10 22:30:00,35.8,26.3,30.45,East,90,0.0,1.0,68,0.00,,CLR,0.00,VWS V14.01,2013-01-11 03:30:00,
2013-01-10 22:35:00,35.6,26.1,30.45,East,90,0.0,0.0,68,0.00,,CLR,0.00,VWS V14.01,2013-01-11 03:35:00,
2013-01-10 22:40:00,35.5,26.0,30.45,East,90,0.0,0.0,68,0.00,,CLR,0.00,VWS V14.01,2013-01-11 03:40:00,
2013-01-10 22:45:00,35.2,26.1,30.45,East,90,0.0,0.0,69,0.00,,CLR,0.00,VWS V14.01,2013-01-11 03:45:00,
2013-01-10 22:50:00,35.0,25.9,30.45,East,90,0.0,0.0,69,0.00,,CLR,0.00,VWS V14.01,2013-01-11 03:50:00,
2013-01-10 22:55:00,35.2,26.1,30.45,East,90,0.0,0.0,69,0.00,,CLR,0.00,VWS V14.01,2013-01-11 03:55:00,
2013-01-10 23:00:00,35.5,26.0,30.44,NE,45,0.0,2.0,68,0.00,,CLR,0.00,VWS V14.01,2013-01-11 04:00:00,
2013-01-10 23:05:00,35.5,26.0,30.44,NE,45,0.0,1.0,68,0.00,,CLR,0.00,VWS V14.01,2013-01-11 04:05:00,
2013-01-10 23:10:00,35.2,26.1,30.44,NE,45,0.0,0.0,69,0.00,,CLR,0.00,VWS V14.01,2013-01-11 04:10:00,
2013-01-10 23:15:00,34.6,25.8,30.43,NE,45,0.0,0.0,70,0.00,,CLR,0.00,VWS V14.01,2013-01-11 04:15:00,
2013-01-10 23:20:00,34.3,25.5,30.43,NE,45,0.0,0.0,70,0.00,,CLR,0.00,VWS V14.01,2013-01-11 04:20:00,
2013-01-10 23:25:00,34.1,25.4,30.43,NE,45,0.0,0.0,70,0.00,,CLR,0.00,VWS V14.01,2013-01-11 04:25:00,
2013-01-10 23:30:00,34.0,25.6,30.43,NE,45,0.0,0.0,71,0.00,,CLR,0.00,VWS V14.01,2013-01-11 04:30:00,
2013-01-10 23:35:00,33.8,25.7,30.43,NE,45,0.0,0.0,72,0.00,,CLR,0.00,VWS V14.01,2013-01-11 04:35:00,
2013-01-10 23:40:00,33.5,25.5,30.43,NE,45,0.0,0.0,72,0.00,,CLR,0.00,VWS V14.01,2013-01-11 04:40:00,
2013-01-10 23:45:00,33.7,25.6,30.42,NE,45,0.0,0.0,72,0.00,,CLR,0.00,VWS V14.01,2013-01-11 04:45:00,
2013-01-10 23:50:00,33.7,26.0,30.42,NE,45,0.0,1.0,73,0.00,,CLR,0.00,VWS V14.01,2013-01-11 04:50:00,
2013-01-10 23:55:00,33.7,26.0,30.42,NE,45,0.0,2.0,73,0.00,,CLR,0.00,VWS V14.01,2013-01-11 04:55:00,